Regional Weather Roundup
Issued by NWS Charleston, SC

Current Version | Previous Version | Graphics & Text | Print | Product List | Glossary On
Versions: 1 2 3 4 5 6 7 8 9 10 11 12 13 14 15 16 17 18 19 20 21 22 23 24 25 26 27 28 29 30 31 32 33 34 35 36 37 38 39 40 41 42 43 44 45 46 47 48 49 50
000 ASUS42 KCHS 212312 RWRCHS REGIONAL WEATHER ROUNDUP NATIONAL WEATHER SERVICE CHARLESTON SC 700 PM EDT FRI JUL 21 2017 NOTE: "FAIR" INDICATES FEW OR NO CLOUDS BELOW 12,000 FEET WITH NO SIGNIFICANT WEATHER AND/OR OBSTRUCTIONS TO VISIBILITY. NOT ALL STATIONS ARE QUALITY CONTROLLED. USE DATA WITH CAUTION... ESPECIALLY DEWPOINT OBSERVATIONS. SCZ027-030-031-034>040-042>050-220000- ...SOUTHEAST SOUTH CAROLINA... CITY SKY/WX TMP DP RH WIND PRES REMARKS N CHARLESTON FAIR 86 71 60 SW14 30.00S HX 91 WATERFRONT PRK N/A 85 78 79 S7 29.99R HX 97 JOHNS ISLAND FAIR 86 75 70 S9G15 30.02R HX 95 PINOPOLIS N/A 90 75 62 VRB2 29.91R HX 100 MONCKS CORNER FAIR 88 72 58 SW9 30.00R HX 94 SUMMERVILLE FAIR 88 73 62 S6 30.01R HX 96 BEAUFORT MCAS FAIR 88 77 69 S6 30.01R HX 100 BEAUFORT ARPT FAIR 84 75 74 S12 30.01R HX 92 HILTON HEAD IS SUNNY 86 77 74 S13 30.02R HX 97 WALTERBORO FAIR 88 72 58 S12 30.01R HX 94 ALLENDALE NOT AVBL ...SOUTHERN MIDLANDS AND PEE DEE... CITY SKY/WX TMP DP RH WIND PRES REMARKS GEORGETOWN FAIR 84 75 74 S7 30.01S HX 92 KINGSTREE FAIR 90 70 51 S5 29.98S HX 95 ORANGEBURG FAIR 91 73 55 S9 29.98R HX 99 BARNWELL FAIR 91 77 62 SE7 29.98R HX 105 AIKEN FAIR 86 72 62 E6 30.02S HX 92 MANNING FAIR 90 70 51 N14G23 29.98R HX 95 COLUMBIA PTSUNNY 88 71 57 SE6 29.97S HX 94 SUMTER NOT AVBL FLORENCE FAIR 91 75 59 S9 29.97S HX 101 MYRTLE BEACH SUNNY 86 73 66 S10G20 30.00S HX 93 N MYRTLE BEACH FAIR 83 76 79 SW17 30.00R HX 91 $$ GAZ063-065-086>088-099>101-113>116-118-119-134>141-150-220000- ...SOUTHEAST GEORGIA... CITY SKY/WX TMP DP RH WIND PRES REMARKS SAVANNAH ARPT FAIR 91 72 53 SE12 30.01R HX 98 HUNTER AAF FAIR 86 74 67 S8 29.99R HX 95 FORT STEWART SUNNY 89 73 58 S6 29.99R HX 96 STATESBORO LGT RAIN 82 76 82 CALM 30.00S SYLVANIA FAIR 84 75 73 CALM 30.01R HX 92 CLAXTON FAIR 81 73 78 SW3 30.01R ...CSRA...CENTRAL AND FAR SOUTHEAST GEORGIA... CITY SKY/WX TMP DP RH WIND PRES REMARKS THOMSON FAIR 83 73 72 SW7 30.04R AUGUSTA-BUSH PTSUNNY 86 73 65 SW13 29.97R HX 93 AUGUSTA-DANIEL FAIR 90 70 51 S12 30.00R HX 95 SWAINSBORO FAIR 81 73 78 SW5 30.02R VIDALIA CLOUDY 81 72 74 SW14 30.02F EASTMAN FAIR 83 62 49 S5 30.01F HAZLEHURST LGT RAIN 74 74 100 SE8 30.03F ALMA HVY RAIN 77 75 93 NW12 30.04R FOG WAYCROSS PTSUNNY 87 77 72 W9 30.02R HX 99 JESUP NOT AVBL BAXLEY PTSUNNY 79 79 100 NW9 30.03R BRUNSWICK FAIR 88 75 66 SE12 30.02S HX 97 SAINT SIMONS FAIR 86 75 69 S8G16 30.01S HX 95 $$ SCZ027-028-034-036>038-045-046-048>050-GAZ119-141-220000- ...LAKE AND SUPPLEMENTAL COASTAL OBSERVATIONS... STATION/POSITION TIME TEMP WIND PRES WAVE SWELL AIR SEA DIR/SP/G HT/PER HT/PER/DIR (UTC) (F) (DEG/KT/KT) (MB) (FT/S) (FT/S/D) WINYAH BAY 2145 86 190/ 11 1015.0 LAKE MURRAY 2220 86 180/ 5/ 9 1013.9 ACE BASIN NERRS NOT AVBL FORT PULASKI 2248 190/ 8/ 11 1016.6R SAPELO ISLAND 2200 88 160/ 11 1016.0 $$ ANZ835-935-AMZ111-154-330-350-352-354-370-450-454-472-220000- ...C-MAN AND BUOY OBSERVATIONS... STATION/POSITION TIME TEMP WIND PRES WAVE SWELL AIR SEA DIR/SP/G HT/PER HT/PER/DIR (UTC) (F) (DEG/KT/KT) (MB) (FT/S) (FT/S/D) BUOY 41004 2250 83 84 190/ 12/ 14 1016.0R 3/ 8 2/140/ 8 BUOY 41008 2150 83 83 170/ 12/ 14 1015.8 2/ 8 2/120/ 8 FOLLY BEACH CMAN 2200 83 180/ 13/ 15 1016.5F CAPERS NEARSHORE 2208 82 84 210/ 12/ 17 1015.5F FRIPP NEARSHORE 2208 84 85 190/ 14/ 17 1015.5R STATION/POSITION TIME TEMP WIND PRES WAVE SWELL AIR SEA DIR/SP/G HT/PER HT/PER/DIR (UTC) (F) (DEG/KT/KT) (MB) (FT/S) (FT/S/D) 5E ST. MARYS GA 2230 83 N/A 2/ 8 FRYING PAN BUOY 2250 83 84 220/ 12/ 14 1015.9R 3/ 8 2/130/ 8 BUOY 41025 2250 84 85 230/ 19/ 21 1014.9S 4/ 4 2/130/ 8 CAPE LOOKOUT NC 2200 83 210/ 11/ 15 1015.0S BUOY 41002 2150 83 84 200/ 10/ 12 1017.5 4/ 9 3/100/ 9 BUOY 41010 2250 83 85 200/ 8/ 10 1017.5S 3/ 9 3/100/ 9 ST AUGUSTINE FL 2300 85 83 200/ 8/ 9 1016.4F $$

USA.gov is the U.S. government's official web portal to all federal, state and local government web resources and services.